Skagway, AK

11:41 PM AKDT on September 23, 2017 (GMT -0800)
Skagway

Weather History for PAGY - December, 2011

Change the Weather History Date:

Friday, December 2, 2011

  Actual Average Record
Temperature  
Mean Temperature 42 °F -  
Max Temperature 44 °F 33 °F 46 °F (2004)
Min Temperature 39 °F 26 °F -9 °F (1990)
Degree Days  
Heating Degree Days 24    
Moisture  
Dew Point 36 °F    
Average Humidity 80    
Maximum Humidity 87    
Minimum Humidity 70    
Precipitation  
Precipitation 0.00 in - - ()
Sea Level Pressure  
Sea Level Pressure 30.16 in    
Wind  
Wind Speed 29 mph (SSW)    
Max Wind Speed 34 mph    
Max Gust Speed 45 mph    
Visibility 10 miles    
Events Rain    
Averages and records for this station are not official NWS values.
T = Trace of Precipitation, MM = Missing Value Source: NWS Daily Summary

Daily Weather History Graph

Daily Weather History Graph

Search for Another Location

Airport or City:

Trip Planner

Search our weather history database for the weather conditions in past years. The results will help you decide how hot, cold, wet, or windy it might be!

Date:

Astronomy

Dec. 02, 2011 Rise Set
Actual Time 8:33 AM AKST 3:07 PM AKST
Civil Twilight 7:40 AM AKST 4:00 PM AKST
Nautical Twilight 6:46 AM AKST 4:54 PM AKST
Astronomical Twilight 5:56 AM AKST 5:43 PM AKST
Moon 12:21 PM AKST (12/2) No Moon Set
Length of Visible Light 8h 19m
Length of Day
6h 33m
First Quarter, 54% of the Moon is Illuminated
Dec 2
First Quarter
Dec 10
Full
Dec 17
Last Quarter
Dec 24
New
Dec 31
First Quarter

Hourly Weather History & Observations

Time (AKST) Temp. Windchill Dew Point Humidity Pressure Visibility Wind Dir Wind Speed Gust Speed Precip Events Conditions
12:53 AM 41.0 °F 29.7 °F 32.0 °F 70% 30.25 in 10.0 mi SSW 31.1 mph 36.8 mph N/A   Overcast
1:53 AM 41.0 °F 30.0 °F 32.0 °F 70% 30.25 in 10.0 mi SW 28.8 mph 34.5 mph N/A   Overcast
3:53 AM 39.9 °F 28.2 °F 33.1 °F 77% 30.24 in 10.0 mi SSW 31.1 mph 36.8 mph N/A   Overcast
4:53 AM 39.9 °F 28.6 °F 33.1 °F 77% 30.22 in 10.0 mi SSW 28.8 mph 38.0 mph N/A   Overcast
5:53 AM 39.9 °F 29.0 °F 33.1 °F 77% 30.19 in 10.0 mi SSW 26.5 mph 36.8 mph N/A   Overcast
6:53 AM 39.9 °F 28.8 °F 33.1 °F 77% 30.18 in 10.0 mi SSW 27.6 mph 38.0 mph N/A   Overcast
7:53 AM 39.9 °F 28.0 °F 33.1 °F 77% 30.16 in 10.0 mi SSW 32.2 mph 44.9 mph N/A   Overcast
8:31 AM 39.2 °F 27.0 °F 33.8 °F 81% 30.16 in 10.0 mi SW 32.2 mph 40.3 mph N/A   Overcast
8:41 AM 39.2 °F 27.2 °F 33.8 °F 81% 30.15 in 10.0 mi SSW 31.1 mph 39.1 mph N/A   Overcast
8:53 AM 39.9 °F 27.8 °F 33.1 °F 77% 30.16 in 10.0 mi SSW 33.4 mph 39.1 mph N/A   Overcast
9:53 AM 39.9 °F 28.0 °F 34.0 °F 79% 30.15 in 10.0 mi SSW 32.2 mph 42.6 mph N/A   Overcast
10:53 AM 39.9 °F 28.6 °F 34.0 °F 79% 30.16 in 10.0 mi SSW 28.8 mph 40.3 mph N/A   Overcast
11:53 AM 41.0 °F 30.2 °F 34.0 °F 76% 30.16 in 10.0 mi SSW 27.6 mph 36.8 mph N/A   Overcast
12:53 PM 41.0 °F 29.1 °F 34.0 °F 76% 30.13 in 10.0 mi SSW 34.5 mph 44.9 mph N/A   Overcast
1:53 PM 41.0 °F 29.5 °F 35.1 °F 79% 30.12 in 10.0 mi SSW 32.2 mph 41.4 mph N/A   Overcast
2:53 PM 42.1 °F 32.3 °F 36.0 °F 79% 30.14 in 10.0 mi SSW 24.2 mph 41.4 mph N/A   Overcast
3:53 PM 42.1 °F 31.9 °F 36.0 °F 79% 30.11 in 10.0 mi SSW 26.5 mph 39.1 mph N/A   Overcast
4:53 PM 43.0 °F 32.7 °F 37.0 °F 80% 30.09 in 10.0 mi SSW 28.8 mph 41.4 mph N/A   Overcast
5:53 PM 43.0 °F 33.5 °F 37.9 °F 82% 30.11 in 10.0 mi SSW 24.2 mph 35.7 mph N/A   Overcast
6:53 PM 43.0 °F 33.5 °F 37.9 °F 82% 30.13 in 10.0 mi SSW 24.2 mph 33.4 mph N/A   Overcast
7:10 PM 42.8 °F 33.8 °F 37.4 °F 81% 30.13 in 10.0 mi SSW 21.9 mph 28.8 mph N/A   Overcast
7:53 PM 43.0 °F 32.9 °F 39.0 °F 86% 30.13 in 10.0 mi SSW 27.6 mph 35.7 mph 0.00 in   Overcast
8:14 PM 42.8 °F 32.1 °F 39.2 °F 87% 30.13 in 10.0 mi SSW 31.1 mph 40.3 mph 0.00 in Rain Light Rain
8:53 PM 43.0 °F 33.1 °F 39.0 °F 86% 30.16 in 10.0 mi SSW 26.5 mph 36.8 mph 0.00 in   Overcast
9:32 PM 42.8 °F 33.1 °F 39.2 °F 87% 30.17 in 10.0 mi SSW 25.3 mph 33.4 mph N/A   Overcast
9:53 PM 43.0 °F 33.5 °F 39.0 °F 86% 30.17 in 10.0 mi SSW 24.2 mph 33.4 mph N/A   Mostly Cloudy
10:53 PM 44.1 °F 35.4 °F 39.0 °F 82% 30.21 in 10.0 mi SSW 21.9 mph 29.9 mph N/A   Overcast
11:53 PM 43.0 °F 33.3 °F 39.0 °F 86% 30.23 in 10.0 mi SSW 25.3 mph 36.8 mph N/A   Overcast